EW6327 Weather Reports


time (UTC)temp
F
wind
direction
speed
knots
gust
knots
rain 1hr
in
rain 24hr
in
rain mn
in
humidity
%
barometer
mb
20260505025020 57 323 0.0 0.0 0.00 0.00 0.00 61 1008.8
20260505024546 57 189 0.0 0.0 0.00 0.00 0.00 61 1008.8
20260505024020 57 257 0.0 0.0 0.00 0.00 0.00 60 1008.9
20260505023520 57 252 0.0 0.0 0.00 0.00 0.00 60 1008.8
20260505023020 57 312 0.0 0.0 0.00 0.00 0.00 59 1008.9
20260505022519 57 263 0.0 0.0 0.00 0.00 0.00 59 1008.9
20260505022019 58 252 0.0 0.0 0.00 0.00 0.00 58 1009.0
20260505021536 58 341 0.0 0.0 0.00 0.00 0.00 58 1009.0
20260505021018 58 233 0.0 0.0 0.00 0.00 0.00 57 1009.0
20260505020518 58 273 0.0 0.0 0.00 0.00 0.00 57 1008.9
20260505020019 58 262 0.0 0.0 0.00 0.00 0.00 56 1008.8
20260505015521 58 272 0.0 0.0 0.00 0.00 0.00 56 1008.8
20260505015019 58 213 0.0 0.0 0.00 0.00 0.00 55 1008.8
20260505014523 59 267 0.0 0.0 0.00 0.00 0.00 55 1008.8
20260505014019 59 277 0.0 0.0 0.00 0.00 0.00 54 1008.8
20260505013518 59 307 0.0 0.0 0.00 0.00 0.00 54 1008.7
20260505013017 59 272 0.0 0.0 0.00 0.00 0.00 53 1008.6
20260505012519 59 280 0.0 4.3 0.00 0.00 0.00 53 1008.6
20260505012017 60 248 0.0 4.3 0.00 0.00 0.00 53 1008.5
20260505011518 60 236 0.0 0.0 0.00 0.00 0.00 52 1008.4
20260505011017 60 244 0.0 0.0 0.00 0.00 0.00 52 1008.4
20260505010516 60 272 0.0 0.0 0.00 0.00 0.00 52 1008.2
20260505010017 60 355 0.0 0.0 0.00 0.00 0.00 52 1008.2
20260505005516 60 301 0.0 0.0 0.00 0.00 0.00 51 1008.0
20260505005017 61 267 0.0 0.0 0.00 0.00 0.00 51 1008.0
20260505004527 61 296 0.0 5.2 0.00 0.00 0.00 50 1007.9
20260505004016 61 250 0.0 5.2 0.00 0.00 0.00 50 1007.7
20260505003515 61 333 0.0 4.3 0.00 0.00 0.00 49 1007.6
20260505003016 62 286 0.0 0.0 0.00 0.00 0.00 49 1007.6
20260505002515 62 159 0.0 0.0 0.00 0.00 0.00 48 1007.3
20260505002015 62 342 0.0 0.0 0.00 0.00 0.00 48 1007.2
20260505001515 62 290 0.0 0.0 0.00 0.00 0.00 48 1007.0
20260505001017 62 273 0.0 0.0 0.00 0.00 0.00 48 1006.9
20260505000514 63 293 0.0 0.0 0.00 0.00 0.00 47 1006.8
20260505000015 63 343 0.0 0.9 0.00 0.00 0.00 47 1006.7
20260504235514 63 288 0.0 0.9 0.00 0.00 0.00 47 1006.6
20260504235017 63 283 0.0 0.0 0.00 0.00 0.00 47 1006.4
20260504234517 64 277 0.0 0.0 0.00 0.00 0.00 46 1006.5
20260504234017 64 247 0.0 0.9 0.00 0.00 0.00 46 1006.3
20260504233513 64 329 0.0 0.9 0.00 0.00 0.00 45 1006.3
20260504233013 64 298 0.0 0.0 0.00 0.00 0.00 45 1006.2
20260504232513 64 254 0.0 0.0 0.00 0.00 0.00 45 1006.2
20260504232012 65 254 0.0 0.9 0.00 0.00 0.00 45 1006.1
20260504231513 65 251 0.0 0.9 0.00 0.00 0.00 44 1006.1
20260504231015 66 289 0.0 0.0 0.00 0.00 0.00 43 1005.9
20260504230512 66 268 0.0 1.7 0.00 0.00 0.00 43 1005.9
20260504230013 66 277 0.0 0.0 0.00 0.00 0.00 42 1005.8
20260504225513 67 310 0.0 0.0 0.00 0.00 0.00 41 1005.6
20260504225012 67 252 0.0 10.4 0.00 0.00 0.00 41 1005.6
20260504224512 67 350 0.0 10.4 0.00 0.00 0.00 40 1005.4
20260504224011 67 263 0.0 0.9 0.00 0.00 0.00 39 1005.5
20260504223511 68 271 0.0 0.9 0.00 0.00 0.00 39 1005.3
20260504223011 68 340 0.0 0.9 0.00 0.00 0.00 39 1005.2
20260504222510 68 338 0.0 0.0 0.00 0.00 0.00 38 1005.4
20260504222014 69 296 0.0 5.2 0.00 0.00 0.00 37 1005.2
20260504221510 69 260 0.0 5.2 0.00 0.00 0.00 37 1005.2
20260504221010 69 241 0.0 0.0 0.00 0.00 0.00 37 1005.1
20260504220515 69 331 0.0 0.9 0.00 0.00 0.00 36 1005.2
20260504220010 70 253 0.0 9.6 0.00 0.00 0.00 35 1005.3
20260504215510 71 243 4.3 9.6 0.00 0.00 0.00 33 1005.2
20260504215009 71 237 0.0 3.5 0.00 0.00 0.00 33 1005.1
20260504214509 71 346 0.0 0.0 0.00 0.00 0.00 33 1005.1
20260504214009 71 36 0.0 0.0 0.00 0.00 0.00 32 1005.1
20260504213512 71 281 0.0 1.7 0.00 0.00 0.00 31 1005.2
20260504213008 71 290 0.0 9.6 0.00 0.00 0.00 31 1005.1
20260504212508 71 344 1.7 9.6 0.00 0.00 0.00 31 1005.1
20260504212008 71 314 0.0 0.0 0.00 0.00 0.00 31 1005.1
20260504211507 72 328 0.0 0.9 0.00 0.00 0.00 31 1005.0
20260504211007 72 331 0.0 1.7 0.00 0.00 0.00 31 1005.1
20260504210510 72 18 0.0 0.0 0.00 0.00 0.00 30 1005.0
20260504210008 72 254 0.0 0.0 0.00 0.00 0.00 31 1005.1
20260504205508 72 345 0.0 0.0 0.00 0.00 0.00 31 1005.1
20260504205006 72 269 0.0 0.0 0.00 0.00 0.00 31 1005.1
20260504204514 73 237 0.0 0.0 0.00 0.00 0.00 30 1005.2
20260504204006 72 322 0.0 0.0 0.00 0.00 0.00 31 1005.1
20260504203506 72 331 0.0 0.9 0.00 0.00 0.00 31 1005.1
20260504203007 72 269 0.0 0.9 0.00 0.00 0.00 30 1005.1
20260504202506 72 15 0.0 8.7 0.00 0.00 0.00 30 1005.1
20260504202005 72 315 1.7 8.7 0.00 0.00 0.00 30 1005.3
20260504201505 73 350 0.0 0.9 0.00 0.00 0.00 29 1005.2
20260504201004 73 340 0.0 0.9 0.00 0.00 0.00 30 1005.2
20260504200504 73 340 0.0 13.9 0.00 0.00 0.00 30 1005.2
20260504200004 73 355 2.6 8.7 0.00 0.00 0.00 30 1005.4
20260504195504 73 54 0.9 7.0 0.00 0.00 0.00 29 1005.3
20260504195003 73 326 0.0 7.8 0.00 0.00 0.00 30 1005.2
20260504194504 72 281 2.6 8.7 0.00 0.00 0.00 29 1005.4
20260504194001 72 336 3.5 11.3 0.00 0.00 0.00 29 1005.3
20260504193600 72 250 3.5 11.3 0.00 0.00 0.00 29 1005.3
20260504193102 72 248 3.5 8.7 0.00 0.00 0.00 29 1005.3
20260504192559 72 116 0.9 8.7 0.00 0.00 0.00 31 1005.2
20260504192101 73 262 0.0 0.0 0.00 0.00 0.00 27 1005.5
20260504191558 72 342 0.0 0.0 0.00 0.00 0.00 28 1005.5
20260504191057 72 360 0.0 0.0 0.00 0.00 0.00 29 1005.4
20260504190557 72 343 0.0 0.0 0.00 0.00 0.00 28 1005.4
20260504190057 72 343 0.0 0.0 0.00 0.00 0.00 28 1005.5
20260504185556 72 345 0.0 0.0 0.00 0.00 0.00 29 1005.6
20260504185055 72 332 0.0 7.8 0.00 0.00 0.00 28 1005.6
20260504184559 72 24 0.9 8.7 0.00 0.00 0.00 28 1005.6
20260504184055 72 300 1.7 9.6 0.00 0.00 0.00 28 1005.7
20260504183553 72 325 1.7 11.3 0.00 0.00 0.00 30 1005.7
20260504183054 71 333 1.7 11.3 0.00 0.00 0.00 31 1005.7
20260504182551 71 309 0.0 0.0 0.00 0.00 0.00 31 1005.7
20260504182051 71 336 0.0 10.4 0.00 0.00 0.00 29 1005.8
20260504181553 70 337 0.9 10.4 0.00 0.00 0.00 30 1005.7
20260504181050 71 254 3.5 15.6 0.00 0.00 0.00 30 1005.8
20260504180550 71 341 6.1 15.6 0.00 0.00 0.00 29 1006.0
20260504180048 71 291 0.0 8.7 0.00 0.00 0.00 33 1005.8
20260504175547 70 336 3.5 8.7 0.00 0.00 0.00 31 1006.1
20260504175047 70 289 0.0 0.0 0.00 0.00 0.00 30 1006.2
20260504174549 70 259 0.0 0.0 0.00 0.00 0.00 29 1006.1
20260504174047 71 271 0.0 0.9 0.00 0.00 0.00 30 1005.9
20260504173546 71 320 0.0 0.9 0.00 0.00 0.00 30 1006.2
20260504173046 71 329 0.0 0.0 0.00 0.00 0.00 31 1006.2
20260504172545 71 290 0.0 0.9 0.00 0.00 0.00 34 1006.2
20260504172044 70 321 0.0 4.3 0.00 0.00 0.00 32 1006.3
20260504171545 69 360 0.0 4.3 0.00 0.00 0.00 33 1006.3
20260504171043 69 355 0.0 0.0 0.00 0.00 0.00 33 1006.3
20260504170544 69 33 0.0 0.0 0.00 0.00 0.00 30 1006.2
20260504151027 67 346 0.0 0.0 0.00 0.00 0.00 33 1007.7
20260504150529 67 341 0.0 0.0 0.00 0.00 0.00 36 1007.6
20260504141017 65 334 0.0 0.0 0.00 0.00 0.00 41 1008.0
20260504140515 64 340 0.0 0.0 0.00 0.00 0.00 40 1008.1
20260504130559 59 341 0.0 0.0 0.00 0.00 0.00 46 1008.9
20260504110534 48 321 0.0 0.0 0.00 0.01 0.00 58 1009.2
20260504100522 44 321 0.0 0.0 0.00 0.01 0.00 65 1009.4
20260504081526 44 321 0.0 0.0 0.00 0.01 0.00 66 1009.2
20260504081010 43 321 0.0 0.0 0.00 0.01 0.00 68 1009.2
20260504080510 43 332 0.0 0.0 0.00 0.01 0.00 70 1009.1
20260504050538 36 332 0.0 0.0 0.00 0.01 0.00 85 1008.9
20260504045537 35 332 0.0 0.0 0.00 0.01 0.00 85 1009.0
20260504045035 35 332 0.0 0.0 0.00 0.01 0.00 85 1009.0
20260504044535 35 332 0.0 0.0 0.00 0.01 0.00 85 1009.1
20260504044035 35 332 0.0 0.0 0.00 0.01 0.00 85 1009.0
20260504043535 35 332 0.0 0.0 0.00 0.01 0.00 85 1009.0
20260504043039 35 332 0.0 0.0 0.00 0.01 0.00 84 1009.0
20260504042532 35 332 0.0 0.0 0.00 0.01 0.00 84 1009.0
20260504042031 35 332 0.0 0.0 0.00 0.01 0.00 84 1009.0
20260504041530 35 331 0.0 0.0 0.00 0.01 0.00 84 1008.9
20260504041029 35 332 0.0 0.0 0.00 0.01 0.00 84 1008.8
20260504040529 35 332 0.0 0.0 0.00 0.01 0.00 83 1008.7
20260504040028 35 331 0.0 0.0 0.00 0.01 0.00 83 1008.7
20260504035527 35 331 0.0 0.0 0.00 0.01 0.01 83 1008.7
20260504035026 35 332 0.0 0.0 0.00 0.01 0.01 82 1008.6
20260504034526 35 332 0.0 0.0 0.00 0.01 0.01 81 1008.6
20260504034025 36 332 0.0 0.0 0.00 0.01 0.01 81 1008.6
20260504033526 36 332 0.0 0.0 0.00 0.01 0.01 81 1008.4
20260504033024 36 332 0.0 0.0 0.00 0.01 0.01 80 1008.5
20260504032523 36 332 0.0 0.0 0.00 0.01 0.01 79 1008.5
20260504032023 36 332 0.0 0.0 0.00 0.01 0.01 79 1008.4
20260504031523 36 332 0.0 0.0 0.00 0.01 0.01 79 1008.5
20260504031021 37 332 0.0 0.0 0.00 0.01 0.01 78 1008.4
20260504030521 37 331 0.0 0.0 0.00 0.01 0.01 78 1008.4
20260504030026 37 332 0.0 0.0 0.00 0.01 0.01 78 1008.4
20260504025520 37 332 0.0 0.0 0.00 0.01 0.01 77 1008.4